TimeEST,TemperatureF,Dew PointF,Humidity,Sea Level PressureIn,VisibilityMPH,Wind Direction,Wind SpeedMPH,Gust SpeedMPH,PrecipitationIn,Events,Conditions,WindDirDegrees,DateUTC
12:06 AM,37.4,35.6,93,29.37,5.0,ENE,28.8,38.0,0.01,Rain,Light Rain,60,2012-12-27 05:06:00
12:26 AM,37.4,35.6,93,29.34,10.0,ENE,25.3,39.1,0.01,Rain,Light Rain,60,2012-12-27 05:26:00
12:53 AM,39.0,36.0,89,29.31,10.0,ENE,28.8,38.0,0.01,,Overcast,60,2012-12-27 05:53:00
1:05 AM,39.2,35.6,87,29.32,10.0,ENE,20.7,38.0,N/A,,Overcast,60,2012-12-27 06:05:00
1:53 AM,39.0,36.0,89,29.30,10.0,ENE,21.9,35.7,N/A,,Overcast,60,2012-12-27 06:53:00
2:53 AM,39.9,37.0,89,29.27,10.0,ENE,23.0,33.4,N/A,,Overcast,60,2012-12-27 07:53:00
3:53 AM,41.0,37.0,86,29.27,10.0,NE,16.1,29.9,0.03,,Overcast,40,2012-12-27 08:53:00
4:53 AM,39.9,37.0,89,29.27,10.0,ENE,13.8,24.2,0.01,,Overcast,60,2012-12-27 09:53:00
5:53 AM,39.0,37.0,93,29.33,10.0,North,8.1,-,0.00,Rain,Light Rain,350,2012-12-27 10:53:00
6:38 AM,39.2,37.4,93,29.35,7.0,North,8.1,-,0.01,Rain,Light Rain,350,2012-12-27 11:38:00
6:45 AM,37.4,35.6,93,29.35,7.0,NNW,12.7,18.4,0.02,Rain,Light Rain,340,2012-12-27 11:45:00
6:53 AM,37.0,34.0,89,29.34,6.0,NNW,11.5,19.6,0.02,Rain,Light Rain,340,2012-12-27 11:53:00
7:24 AM,37.4,33.8,87,29.37,10.0,North,10.4,20.7,0.00,Rain,Light Rain,350,2012-12-27 12:24:00
7:53 AM,37.0,34.0,89,29.38,10.0,North,13.8,24.2,0.00,Rain,Light Rain,350,2012-12-27 12:53:00
8:53 AM,36.0,34.0,93,29.44,4.0,NNW,15.0,21.9,0.00,Rain,Light Rain,330,2012-12-27 13:53:00
9:03 AM,35.6,32.0,87,29.46,7.0,NNW,15.0,27.6,0.00,Rain,Light Rain,330,2012-12-27 14:03:00
9:27 AM,35.6,32.0,87,29.48,8.0,NNW,18.4,25.3,0.00,,Overcast,330,2012-12-27 14:27:00
9:53 AM,35.1,30.9,85,29.49,7.0,NW,17.3,26.5,0.00,,Overcast,320,2012-12-27 14:53:00
10:53 AM,37.0,30.0,76,29.51,10.0,NNW,12.7,21.9,0.00,,Overcast,340,2012-12-27 15:53:00
11:51 AM,37.4,28.4,70,29.54,10.0,NW,15.0,28.8,N/A,,Overcast,310,2012-12-27 16:51:00
11:53 AM,37.0,28.0,70,29.53,10.0,NW,20.7,28.8,N/A,,Overcast,310,2012-12-27 16:53:00
12:23 PM,37.4,26.6,65,29.55,10.0,NW,23.0,35.7,N/A,,Overcast,320,2012-12-27 17:23:00
12:53 PM,36.0,26.1,67,29.55,10.0,NNW,21.9,33.4,N/A,,Overcast,330,2012-12-27 17:53:00
1:01 PM,35.6,26.6,70,29.56,10.0,NW,20.7,33.4,N/A,,Overcast,320,2012-12-27 18:01:00
1:53 PM,36.0,26.1,67,29.57,10.0,NNW,13.8,29.9,N/A,,Overcast,330,2012-12-27 18:53:00
2:16 PM,35.6,24.8,65,29.59,10.0,NNW,16.1,29.9,N/A,,Overcast,340,2012-12-27 19:16:00
2:53 PM,36.0,25.0,64,29.60,10.0,NNW,17.3,29.9,N/A,,Overcast,330,2012-12-27 19:53:00
3:53 PM,35.1,24.1,64,29.64,10.0,NW,19.6,28.8,N/A,,Overcast,320,2012-12-27 20:53:00
4:53 PM,35.1,24.1,64,29.68,10.0,NNW,16.1,20.7,N/A,,Overcast,330,2012-12-27 21:53:00
5:53 PM,36.0,23.0,59,29.72,10.0,NNW,15.0,26.5,N/A,,Overcast,330,2012-12-27 22:53:00
7:53 PM,33.1,19.9,59,29.79,10.0,NNW,15.0,24.2,N/A,,Clear,340,2012-12-28 00:53:00
8:53 PM,32.0,19.9,61,29.82,10.0,NNW,15.0,23.0,N/A,,Scattered Clouds,330,2012-12-28 01:53:00
9:53 PM,32.0,21.0,64,29.86,10.0,NW,16.1,23.0,N/A,,Overcast,320,2012-12-28 02:53:00
10:53 PM,32.0,21.0,64,29.87,10.0,North,18.4,25.3,N/A,,Overcast,350,2012-12-28 03:53:00
11:53 PM,32.0,21.0,64,29.88,10.0,NNW,13.8,23.0,N/A,,Overcast,340,2012-12-28 04:53:00